Location: Fort Worth, Tx
(32.7431°N, 97.3695°W)
Time: 06:44:47
(UTC-04:00)

Vanguard 2 - Pass Details

Date: 02 March 2024
Orbit: 552 x 2916 km, 32.9° (Epoch: 24 April)

Event Time Altitude Azimuth Distance (km) Brightness Sun altitude
Rises 20:01:08 0° 261° (W) 3,761 13.5 -7.8°
Reaches altitude 10° 20:03:19 10° 261° (W) 3,035 12.3 -8.2°
Maximum altitude 20:11:06 88° 173° (S) 1,622 9.1 -9.8°
Enters shadow 20:22:57 14° 85° (E) 4,539 10.8 -12.3°
